Regional Weather Roundup
Issued by NWS

Home | Current Version | Previous Version | Text Only | Print | Product List | Glossary On
Versions: 1 2 3 4 5 6 7 8 9 10 11 12 13 14 15 16 17 18 19 20 21 22 23 24 25 26 27 28 29 30 31 32 33 34 35 36 37 38 39 40 41 42 43 44 45 46 47 48 49 50
000
ASUS43 KMPX 240510
RWRMN
WEATHER ROUNDUP FOR MINNESOTA
NATIONAL WEATHER SERVICE TWIN CITIES/CHANHASSEN MN
1200 AM CDT FRI OCT 24 2014


NOTE: "FAIR" INDICATES FEW OR NO CLOUDS BELOW 12,000 FEET WITH NO
SIGNIFICANT WEATHER AND/OR OBSTRUCTIONS TO VISIBILITY. N/A MEANS
CURRENT SKY AND/OR WEATHER CONDITIONS ARE NOT AVAILABLE.

MNZ060>063-068>070-240600-
   Twin Cities Metro

CITY           SKY/WX    TMP DP  RH WIND       PRES   REMARKS
TWIN CITIES    CLEAR     49  47  93 SE6       29.97R
ST PAUL        CLEAR     48  47  96 S3        29.98R FOG
CRYSTAL        CLEAR     50  48  93 S5        29.95R
BLAINE         CLEAR     50  48  93 SE5       29.96R FOG
LAKEVILLE      CLEAR     46  46 100 S3        29.98R
EDEN PRAIRIE   CLEAR     50  45  83 SW6       29.96R
SOUTH ST PAUL  CLEAR     49  47  95 S3        29.97S FOG
LAKE ELMO      FAIR      46  46 100 S5        29.99R FOG
$$
MNZ001>005-007-008-013>017-022>024-027-028-240600-
   Northwest Minnesota

CITY           SKY/WX    TMP DP  RH WIND       PRES   REMARKS
BEMIDJI        MOCLDY    53  39  59 S6        29.84S
HALLOCK        CLOUDY    52  41  66 S9        29.73F
ROSEAU         CLOUDY    50  43  76 S8        29.76F
WARROAD        CLOUDY    52  43  71 S5        29.77S
THIEF RVR FALL CLOUDY    50  39  66 S8        29.79F
CROOKSTON      CLOUDY    52  43  71 S9        29.79F
FOSSTON        MOCLDY    52  37  58 S10       29.83S
DETROIT LAKES  PTCLDY    55  45  67 SW7       29.87S
MOORHEAD       CLOUDY    52  43  71 S8        29.83F
PARK RAPIDS    MOCLDY    51  41  68 S8        29.87S
MAHNOMEN       FAIR      52  40  62 S10       29.82F
$$
MNZ006-009>011-018-025>026-240600-
   North Central Minnesota

CITY           SKY/WX    TMP DP  RH WIND       PRES   REMARKS
BAUDETTE       CLOUDY    47  38  71 S3        29.78F
FLAG ISLAND    CLOUDY    50  45  81 S7        29.75S
INTL FALLS     PTCLDY    48  39  71 S5        29.82F
WASKISH        MOCLDY    54  39  58 CALM      29.81S
BIG FORK       PTCLDY    45  39  81 S5        29.86S
LONGVILLE      PTCLDY    55  39  54 S5        29.87S
GRAND RAPIDS   MOCLDY    48  41  76 S8        29.88S
CRANE LAKE     PTCLDY    45  45 100 S3        29.87F
ORR            MOCLDY    46  43  87 CALM      29.84F
COOK           PTCLDY    50  46  87 S3        29.88S
WALKER         FAIR      53  40  61 SW8       29.86S
$$
MNZ012-019>021-037-240600-
   Northeast Minnesota

CITY           SKY/WX    TMP DP  RH WIND       PRES   REMARKS
DULUTH         CLEAR     47  45  93 S6        29.92S FOG
ELY            CLEAR     46  45  93 S3        29.90S FOG
HIBBING        FOG       35  33  92 CALM      29.90S VSB 1/4
EVELETH        FOG       36  34  93 CALM      29.91S VSB 1/4
DULUTH HARBOR  CLEAR     48  46  93 CALM      29.94R FOG
TWO HARBORS    HAZE      39  28  65 CALM      29.92R VSB 3/4
SILVER BAY     FOG       39  37  93 CALM      29.92S VSB<1/4
GRAND MARAIS     N/A     48  46  93 CALM      29.94S
G MARAIS ARPRT FOG       46  45  93 SW7       29.93S VSB 1/4
$$
MNZ029>031-032-039>041-046>048-054>057-064-240600-
   West Central Minnesota

CITY           SKY/WX    TMP DP  RH WIND       PRES   REMARKS
FERGUS FALLS   MOCLDY    50  39  66 S8        29.88S
WHEATON        PTCLDY    50  43  76 S7        29.88F
MORRIS         PTCLDY    46  41  81 SE8       29.88F
ALEXANDRIA     PTCLDY    54  42  64 S12       29.91F
ELBOW LAKE     FAIR      49  42  78 S9        29.88R
WADENA         PTCLDY    48  39  71 S5        29.88S
GLENWOOD       PTCLDY    46  41  81 S6        29.93R
APPLETON       MOCLDY    54  43  66 S6        29.90R
BENSON         MOCLDY    52  45  76 S7        29.91R
ORTONVILLE     MOCLDY    46  39  76 SE5       29.88F
MADISON        MOCLDY    50  43  76 S6        29.90S
WILLMAR        FAIR      46  39  76 SE5       29.94S
$$
MNZ033>034-036-042>043-049>051-058-059-240600-
   Central Minnesota

CITY           SKY/WX    TMP DP  RH WIND       PRES   REMARKS
ST CLOUD       PTCLDY    45  39  79 SE5       29.93F
SAUK CENTRE    FAIR      47  41  77 S6        29.92S
PAYNESVILLE    MOCLDY    49  38  67 SE6       29.93F
AITKIN         PTCLDY    54  46  76 S7        29.88F
PINE RIVER     PTCLDY    52  39  62 CALM      29.91S
BRAINERD       PTCLDY    52  37  56 S10       29.90F
STAPLES        FAIR      48  39  71 S6        29.89S
LONG PRAIRIE   FAIR      48  39  71 S7        29.92S
LITTLE FALLS   PTCLDY    46  36  66 CALM      29.91F
LITCHFIELD     PTCLDY    48  43  81 CALM      29.94F
BUFFALO        CLEAR     48  40  73 CALM      29.96S
MAPLE LAKE     CLEAR     50  42  75 SE3       29.95S
$$
MNZ037-044-045-052-053-240600-
   East Central Minnesota

CITY           SKY/WX    TMP DP  RH WIND       PRES   REMARKS
PRINCETON      CLEAR     46  45  93 CALM      29.94S
MORA           FOG       45  45 100 CALM      29.95F VSB 1
CAMBRIDGE      PTCLDY    52  43  71 SE5       29.93S HAZE
RUSH CITY      PTCLDY    47  46  95 S5        29.95S
MOOSE LAKE     MOCLDY    46  45  93 CALM      29.91S FOG
HINCKLEY       MOCLDY    46  46 100 S3        29.95R FOG
CLOQUET        FOG       48  46  93 S7        29.92S VSB 1/2
MCGREGOR       MOCLDY    48  45  87 S5        29.91F
$$
MNZ071>073-080-081-089-090-097-098-240600-
   Southwest Minnesota

CITY           SKY/WX    TMP DP  RH WIND       PRES   REMARKS
MONTEVIDEO     MOCLDY    54  45  71 SW5       29.92S
GRANITE FALLS  MOCLDY    49  43  80 S8        29.93S
CANBY          MOCLDY    58  45  61 SW12      29.90S
MARSHALL       MOCLDY    55  43  62 SW16      29.91R
REDWOOD FALLS  MOCLDY    51  43  74 S8        29.92F
OLIVIA         MOCLDY    50  41  71 S6        29.93R
PIPESTONE      MOCLDY    52  45  76 S7        29.94R
WINDOM         MOCLDY    52  45  76 S3        29.95F
WORTHINGTON    MOCLDY    54  43  66 S9        29.96F
JACKSON        MOCLDY    52  41  66 S8        29.96F
TRACY          MOCLDY    56  45  64 SW14      29.92S
SLAYTON        MOCLDY    52  44  74 S12       29.95S
$$
MNZ065>067-074>077-082>085-091>093-240600-
   South Central Minnesota

CITY           SKY/WX    TMP DP  RH WIND       PRES   REMARKS
MANKATO        CLEAR     46  36  66 SE8       29.96F
NEW ULM        PTCLDY    48  41  76 S7        29.94F
ST JAMES       MOCLDY    52  43  71 S7        29.96F
FAIRMONT       MOCLDY    46  37  71 S8        29.97F
GLENCOE        PTCLDY    51  41  68 S3        29.95S
FARIBAULT      CLEAR     50  48  93 S6        29.99R
OWATONNA       CLEAR     52  48  87 S9        29.99R
WASECA         CLEAR     43  37  81 S3        30.00S
ALBERT LEA     CLEAR     48  48 100 S3        30.00R FOG
$$
MNZ078>079-086>088-094>096-240600-
   Southeast Minnesota

CITY           SKY/WX    TMP DP  RH WIND       PRES   REMARKS
ROCHESTER      FOG       47  46  97 S8        30.01F VSB 1/4
RED WING       CLOUDY    50  48  93 SE5       29.99R FOG
STANTON        CLEAR     51  48  90 S7        29.97R
DODGE CENTER   CLEAR     48  46  93 S7        30.00R FOG
WINONA         CLOUDY    52  50  93 S3        30.02F FOG
AUSTIN         DRZL/FOG  48  48 100 S9        30.01S VSB 1/4
PRESTON        FOG       47  46  97 S8        30.02F VSB 1/4
$$
ABBREVIATIONS USED IN REMARKS
   TC - TEMPERATURES IN CELSIUS
  WCI - WIND CHILL INDEX
   HX - HEAT INDEX
  VSB - VISIBILITY
$$



USA.gov is the U.S. government's official web portal to all federal, state and local government web resources and services.